Погода в Кипиевом

Россия / Республика Коми     65°39′27″N   54°30′12″E
темп.,
°C
ветер,
м/с
пор.,
м/с
влажн.,
%
обл.,
%
осадки,
мм/ч
давл.,
гПа
погр.,
м
19 сентября, вс
вс1900:00+3с51273100 0.0 10201464
03:00+3с51275100 0.0 10201518
06:00+3с51274100 0.0 10201490
09:00+4с61272100 0.1 10211431
12:00+4с61269100 0.1 10221380
15:00+4с61168100 0.1 10241287
18:00+4с51168100 0.0 10251231
21:00+4ссв61065100 0.0 10261170
20 сентября, пн
пн2000:00+3с4870100 0.0 10281057
03:00+3с4870100 0.0 10291070
06:00+4с3770100 0.0 1031876
09:00+4с3666100 0.0 10321231
12:00+5ссз3663100 0.0 10331241
15:00+5сз3671100 0.0 1033934
18:00+4сз2773100 0.0 1032298
21:00+3зсз2783100 0.0 1032184
21 сентября, вт
вт2100:00+3зсз31090100 0.0 1032329
03:00+3зсз31187100 0.0 1031428
06:00+3сз3119123 0.0 1030436
09:00+6сз486927 0.0 1030597
12:00+8сз475959 0.0 1029800
15:00+9ссз375966 0.0 1029884
18:00+5сз277886 0.0 1029151
21:00+5сз2877100 0.0 1028247
22 сентября, ср
ср2200:00+4ссз2680100 0.0 1029214
03:00+2сз2491100 0.0 1029106
06:00+2сз269198 0.0 1029170
09:00+7ссз24665 0.0 1029430
12:00+9с235116 0.0 1029757
15:00+10ссз12505 0.0 1029790
18:00+4с11755 0.0 102910
21:00+2в00835 0.0 102910
23 сентября, чт
чт2300:00+1ююз11875 0.0 102910
03:00+1ююз22910 0.0 102911
06:000ю22916 0.0 102930
09:00+6ю246514 0.0 1028305
12:00+10ю35515 0.0 1027649
15:00+10ю37578 0.0 1025754
18:00+6ю27900 0.0 1024130
21:00+4ю29945 0.0 1024188